Station SPXA2 - Ship Island, AK Image indicating link to RSS feed of recent meteorological observations for station SPXA2


Conditions at SPXA2 as of
(8:03 pm AKDT on 07/13/2024)
0403 GMT on 07/14/2024:
     

Click on the graph icon in the table below to see a time series plot of the last five days of that observation.

5-day plot - Wind Direction Wind Direction (WDIR):SSE ( 150 deg true )
5-day plot - Wind Speed Wind Speed (WSPD): 12.0 kts
5-day plot - Wind Gust Wind Gust (GST): 15.0 kts
5-day plot - Atmospheric Pressure Atmospheric Pressure (PRES):30.11 in
5-day plot - Air Temperature Air Temperature (ATMP): 60.6 °F
5-day plot - Wind Speed at 10 Meters Wind Speed at 10 meters (WSPD10M): 13.6 kts
5-day plot - Wind Speed at 20 Meters Wind Speed at 20 meters (WSPD20M): 13.6 kts
5-day plot -  Wind Speed, Wind Gust and Atmospheric Pressure Combined plot of Wind Speed, Gust, and Air Pressure
Previous observations
TIME
(AKDT)
5-day plot - Wind Direction
WDIR
 
5-day plot - Wind Speed
WSPD
kts
5-day plot - Wind Gust
GST
kts
5-day plot - Wave Height
WVHT
ft
5-day plot - Dominant Wave Period
DPD
sec
5-day plot - Average Wave Period
APD
sec
5-day plot - Mean Wave Direction
MWD
 
5-day plot - Atmospheric Pressure
PRES
in
5-day plot - Pressure Tendency
PTDY
in
5-day plot - Air Temperature
ATMP
°F
5-day plot - Water Temperature
WTMP
°F
5-day plot - Dew Point
DEWP
°F
5-day plot - Salinity
SAL
psu
5-day plot - Visibility
VIS
nmi
5-day plot - Tide (above MLLW)
TIDE
ft
2024-07-13 07:53 pm SE 13.0 15.0----30.11- 60.8-----
2024-07-13 07:43 pm SE 12.0 14.0----30.12- 60.6-----
2024-07-13 07:33 pm SE 11.1 14.0----30.12- 60.6-----
2024-07-13 07:23 pm SE 9.9 11.1----30.12- 60.4-----
2024-07-13 07:13 pm SE 9.9 11.1----30.12- 60.4-----
2024-07-13 07:03 pmSSE 8.9 11.1----30.12- 60.6-----
2024-07-13 06:53 pmSSE 9.9 12.0----30.12- 60.8-----
2024-07-13 06:43 pm SE 9.9 12.0----30.12- 61.9-----
2024-07-13 06:33 pmSSE 11.1 13.0----30.13- 61.7-----
2024-07-13 06:23 pmSSE 9.9 12.0----30.13- 61.7-----
2024-07-13 06:13 pm SE 9.9 12.0----30.13- 61.5-----
2024-07-13 06:03 pm SE 9.9 12.0----30.13- 61.3-----
2024-07-13 03:53 pmSSE 11.1 13.0----30.14- 59.7-----
2024-07-13 03:43 pmSSE 9.9 12.0----30.14- 60.4-----
2024-07-13 03:33 pm SE 9.9 12.0----30.14- 61.3-----
2024-07-13 03:23 pm SE 9.9 12.0----30.15- 61.0-----
2024-07-13 03:13 pm SE 9.9 12.0----30.15- 60.4-----
2024-07-13 03:03 pm SE 9.9 12.0----30.15- 60.4-----
2024-07-13 02:53 pm SE 8.9 11.1----30.15- 60.6-----
2024-07-13 02:43 pm SE 8.9 11.1----30.15- 60.6-----
2024-07-13 02:33 pm SE 8.9 12.0----30.15- 60.4-----
2024-07-13 02:23 pm SE 8.9 12.0----30.15- 60.3-----
2024-07-13 02:13 pmESE 9.9 14.0----30.15- 60.4-----
2024-07-13 02:03 pmESE 8.9 12.0----30.16- 60.3-----
2024-07-13 01:53 pm SE 8.9 12.0----30.16- 59.5-----
2024-07-13 01:43 pm SE 9.9 13.0----30.15- 59.4-----
2024-07-13 01:33 pm SE 9.9 13.0----30.15- 59.5-----
2024-07-13 01:23 pm SE 9.9 13.0----30.15- 59.4-----
2024-07-13 01:13 pm SE 8.9 9.9----30.15- 59.2-----
2024-07-13 01:03 pm SE 8.0 9.9----30.15- 59.0-----
2024-07-13 12:53 pm SE 8.9 11.1----30.15- 58.6-----
2024-07-13 12:43 pm SE 9.9 13.0----30.15- 58.6-----
2024-07-13 12:33 pmSSE 11.1 13.0----30.15- 58.6-----
2024-07-13 12:23 pmSSE 9.9 12.0----30.15- 58.5-----
2024-07-13 12:13 pm SE 9.9 13.0----30.15- 58.5-----
2024-07-13 12:03 pm SE 9.9 12.0----30.15- 58.5-----
2024-07-13 11:53 am SE 9.9 12.0----30.15- 58.5-----
2024-07-13 11:43 am SE 8.0 11.1----30.15- 58.5-----
2024-07-13 11:33 am SE 8.0 8.9----30.14- 58.5-----
2024-07-13 11:23 am SE 7.0 8.9----30.14- 58.5-----
2024-07-13 11:13 am SE 7.0 8.0----30.14- 58.3-----
2024-07-13 11:03 am SE 7.0 8.0----30.14- 58.1-----
2024-07-13 10:53 am SE 7.0 8.9----30.14- 58.1-----
2024-07-13 10:43 am SE 6.0 8.0----30.14- 58.1-----
2024-07-13 10:33 am SE 6.0 7.0----30.14- 58.1-----
2024-07-13 10:23 am SE 6.0 7.0----30.14- 58.1-----
2024-07-13 10:13 am SE 5.1 6.0----30.15- 58.1-----
2024-07-13 10:03 am SE 5.1 6.0----30.14- 58.1-----
2024-07-13 09:53 amSSE 5.1 5.1------------
2024-07-13 08:33 am- 0.0 1.0----30.14- 58.8-----
2024-07-13 03:53 amNNE 1.9 4.1----30.15- 56.5-----
2024-07-13 03:43 amNNE 1.9 5.1----30.14- 56.7-----
2024-07-13 03:33 amNNE 1.9 4.1----30.15- 56.8-----
2024-07-13 03:23 amNNE 1.9 4.1----30.15- 57.0-----
2024-07-13 03:13 amNNE 1.0 2.9----30.15- 56.8-----
2024-07-13 03:03 amNNE 1.0 4.1----30.14- 56.8-----
2024-07-13 02:53 amNNE 1.0 2.9----30.14- 57.0-----
2024-07-13 02:43 amNNE 1.9 4.1----30.14- 56.8-----
2024-07-13 02:33 amNNE 1.0 5.1----30.14- 57.0-----
2024-07-13 02:23 amNNE 1.9 5.1----30.14- 57.0-----
2024-07-13 02:13 amNNE 1.9 5.1----30.14- 57.4-----
2024-07-13 02:03 amNNE 1.9 5.1----30.14- 57.4-----
2024-07-13 01:53 am N 1.9 4.1----30.14- 57.4-----
2024-07-13 01:43 am N 2.9 6.0----30.15- 57.4-----
2024-07-13 01:33 amNNW 4.1 7.0----30.14- 57.6-----
2024-07-13 01:23 am N 1.9 6.0----30.14- 57.7-----
2024-07-13 01:13 am N 1.9 2.9----30.14- 57.7-----
2024-07-13 01:03 am N 1.9 5.1----30.14- 57.7-----
2024-07-13 12:53 am N 1.9 4.1----30.14- 57.7-----
2024-07-13 12:43 amNNE 1.9 2.9----30.14- 57.7-----
2024-07-13 12:33 amNNE 1.0 4.1----30.14- 57.9-----
2024-07-13 12:23 am NE 1.0 2.9----30.15- 57.9-----
2024-07-13 12:13 amNNE 1.9 4.1----30.15- 58.1-----
2024-07-13 12:03 am N 1.9 4.1----30.16- 58.1-----
2024-07-12 11:53 pm N 1.0 4.1----30.16- 57.9-----
2024-07-12 11:43 pmNNW 2.9 5.1----30.16- 57.9-----
2024-07-12 11:33 pm NW 5.1 6.0----30.16- 57.9-----
2024-07-12 11:23 pmNNW 4.1 6.0----30.16- 58.3-----
2024-07-12 11:13 pmNNE 1.0 4.1----30.16- 58.5-----
2024-07-12 11:03 pm N 1.9 2.9----30.16- 58.5-----
2024-07-12 10:53 pm N 1.9 4.1----30.15- 58.6-----
2024-07-12 10:43 pmNNW 2.9 9.9----30.16- 59.0-----
2024-07-12 10:33 pm SE 2.9 4.1----30.16- 59.2-----
2024-07-12 10:23 pm SE 5.1 6.0----30.16- 59.4-----
2024-07-12 10:13 pm SE 4.1 6.0----30.16- 59.5-----
2024-07-12 10:03 pm SE 5.1 7.0----30.16- 59.5-----
2024-07-12 09:53 pm SE 5.1 7.0----30.16- 59.7-----
2024-07-12 09:43 pm SE 5.1 8.0----30.16- 59.7-----
2024-07-12 09:33 pmESE 5.1 8.0----30.16- 59.7-----
2024-07-12 09:23 pmESE 6.0 8.9----30.16- 59.5-----
2024-07-12 09:13 pm SE 8.0 9.9----30.16- 59.2-----
2024-07-12 09:03 pm SE 8.0 9.9----30.16- 59.0-----
2024-07-12 08:53 pmESE 9.9 13.0----30.15- 59.0-----
2024-07-12 08:43 pm SE 11.1 13.0----30.15- 59.0-----
2024-07-12 08:33 pm SE 11.1 13.0----30.15- 59.2-----
2024-07-12 08:23 pm SE 9.9 11.1----30.15- 59.4-----
2024-07-12 08:13 pm SE 9.9 13.0----30.15- 59.5-----
2024-07-12 08:03 pm SE 11.1 13.0----30.16- 59.2-----
2024-07-12 07:53 pm SE 11.1 13.0----30.16- 59.0-----